Vorticity
3 46 8 5 24 3 9 61 69 9 31 -18 -1 16 7 5 4 3 2 2 4 2 5 5 5 6 7 -8 14 -7 5 -2 12 7 6 -5 15 7 2 8 -2 20 27
-29 34 23 13 31 10 28 25 -10 -4 29 22 8 16 14 9 5 5 5 4 4 6 6 8 3 -5 -10 19 -13 15 6 8 6 5 9 7 2 3 1 23 24 2 -3
4 5 30 40 40 8 -34 -37 38 23 34 32 -0 -3 -6 2 2 3 3 7 5 5 6 5 0 -14 23 7 -12 9 10 -0 7 13 9 7 -0 12 43 9 -14 -1 -5
7 -15 -23 19 46 -1 5 -47 20 -6 -7 46 13 13 8 10 9 4 5 1 3 7 1 -4 -2 7 9 10 -0 10 6 7 10 10 12 -7 28 19 -7 6 22 5 7
10 28 13 1 29 29 54 26 37 55 5 20 15 45 22 40 0 6 5 7 7 -8 12 -8 7 -5 9 -6 2 3 0 2 -4 -6 3 30 -19 3 5 6 2 3 -1
14 14 31 -12 26 11 18 21 13 14 -2 9 -10 21 5 -6 21 12 2 6 -3 13 14 -10 14 20 3 7 -6 6 5 7 9 34 23 7 -4 1 -1 1 3 2 5
9 16 13 7 -18 5 23 6 31 55 14 -5 9 4 9 -8 5 3 4 11 -3 12 9 2 6 13 5 -15 6 9 -20 26 37 -9 -2 -0 6 6 9 2 4 4 3
8 8 16 5 13 -5 28 15 36 43 44 32 18 5 -6 -8 -11 25 3 6 -13 4 -16 8 14 -24 18 14 -12 -14 34 7 11 -3 1 -4 -1 5 4 6 9 4 7
1 2 14 -1 4 4 -11 26 -11 -11 17 21 22 -3 29 40 44 53 46 29 32 3 20 36 46 2 20 42 29 45 -25 18 2 -2 9 5 9 -11 8 4 7 4 6
8 12 7 12 14 12 4 -12 6 10 -7 6 -3 -12 3 -17 11 -14 37 35 11 11 31 53 -18 80 -35 -7 9 -1 11 2 -11 3 4 -2 -2 15 4 2 5 -4 -1
2 3 4 7 -2 7 4 12 15 -6 -7 8 -2 14 17 -0 21 15 -22 -0 -8 11 7 -1 5 3 4 7 12 -9 6 4 10 4 6 15 11 1 6 1 4 4 -0
14 6 6 2 3 7 -3 8 4 15 10 4 0 1 1 8 -2 6 7 6 10 7 7 8 9 8 11 5 5 7 8 10 6 3 4 6 -0 10 9 1 1 0 7
6 17 22 15 18 9 24 24 5 1 9 12 10 5 2 8 5 4 13 13 12 11 7 13 8 6 7 4 6 4 7 3 5 12 -1 -1 5 6 4 2 4 6 7
6 9 7 7 5 7 6 -0 17 22 -1 -7 1 6 14 11 8 5 7 2 2 6 7 5 -1 1 1 5 3 1 7 6 2 4 7 3 6 6 4 5 7 5 11
9 7 7 7 8 5 6 9 9 19 23 4 3 11 -1 28 15 20 6 3 4 8 6 9 4 5 10 10 10 5 2 5 6 4 -0 8 6 0 5 6 9 12 9
8 20 14 5 9 5 6 10 4 4 6 3 11 19 25 14 7 8 11 9 8 7 12 6 10 5 10 8 3 5 2 2 10 8 4 11 -1 4 11 9 13 12 16
19 14 8 18 11 10 8 7 6 7 7 3 2 6 8 5 6 6 8 10 6 8 5 10 9 7 3 4 6 3 6 3 4 8 5 11 6 12 15 12 11 15 9
3 11 18 11 14 16 14 12 12 12 6 9 10 7 4 3 4 6 7 8 9 7 10 7 9 9 9 8 9 9 10 8 6 9 13 14 13 15 10 12 11 11 12
21 5 2 2 16 13 15 13 15 14 11 12 8 9 7 5 5 6 2 -1 -1 -1 3 5 2 5 3 5 9 10 8 11 13 10 11 10 9 8 10 10 13 11 10
7 12 13 7 4 -3 5 7 11 12 16 15 13 11 11 14 18 15 15 17 17 17 15 13 11 7 12 14 13 14 11 13 11 10 12 9 11 9 8 6 6 7 6
24 15 6 15 11 11 14 16 14 10 6 6 9 12 13 12 11 9 11 9 9 9 10 11 12 14 13 10 10 9 8 11 8 10 8 10 9 9 7 7 9 9 10
13 14 22 15 11 6 4 2 -1 0 9 8 11 12 9 9 11 12 12 12 12 12 10 8 8 7 15 10 11 13 13 9 8 8 7 8 10 11 15 11 15 10 14
6 8 12 19 24 21 12 12 7 18 15 12 5 1 7 12 11 9 9 8 11 11 10 13 16 18 15 11 9 8 4 7 10 12 10 11 20 17 12 14 17 15 12
30 11 6 12 8 5 12 12 8 27 27 19 18 12 8 10 12 8 9 5 9 12 11 13 12 11 11 11 16 19 20 21 20 19 10 7 14 14 13 10 8 9 13
27 26 17 7 13 16 13 13 11 6 -0 -1 18 16 26 24 17 12 13 7 10 10 11 7 7 10 7 5 5 6 7 12 19 19 16 9 8 9 12 8 9 11 10
7 30 21 6 1 3 13 16 17 20 20 20 14 21 14 9 15 25 29 15 15 11 8 8 9 8 10 8 9 12 17 19 13 12 6 9 4 2 11 9 11 13 16
Height
5673 5678 5687 5695 5702 5714 5726 5729 5736 5733 5741 5751 5757 5767 5776 5780 5785 5790 5795 5801 5805 5809 5812 5816 5819 5821 5824 5826 5829 5830 5833 5833 5833 5834 5834 5834 5834 5832 5832 5831 5829 5827 5827
5671 5677 5687 5691 5698 5712 5723 5726 5722 5727 5735 5743 5752 5759 5766 5772 5778 5784 5789 5794 5798 5802 5806 5808 5812 5816 5818 5821 5824 5825 5827 5827 5828 5829 5829 5829 5829 5826 5827 5825 5824 5823 5822
5669 5673 5681 5689 5695 5705 5714 5718 5722 5725 5728 5733 5738 5746 5753 5760 5767 5774 5781 5786 5791 5795 5797 5800 5805 5808 5811 5815 5816 5818 5819 5820 5819 5820 5823 5822 5822 5822 5821 5820 5819 5819 5818
5668 5673 5681 5685 5690 5700 5705 5711 5719 5720 5724 5728 5731 5737 5745 5754 5761 5767 5773 5778 5783 5787 5789 5792 5797 5800 5804 5806 5809 5811 5812 5813 5813 5812 5813 5815 5816 5815 5816 5815 5814 5813 5810
5666 5671 5677 5681 5686 5696 5702 5709 5711 5716 5718 5721 5724 5729 5736 5745 5749 5756 5763 5770 5776 5779 5782 5784 5789 5793 5798 5800 5802 5805 5807 5808 5809 5800 5805 5805 5806 5807 5808 5808 5809 5807 5803
5662 5668 5674 5681 5684 5690 5697 5701 5707 5709 5717 5717 5721 5726 5730 5737 5742 5746 5753 5760 5769 5771 5775 5778 5782 5785 5789 5791 5793 5796 5799 5800 5800 5802 5795 5797 5800 5800 5800 5800 5800 5801 5800
5658 5664 5670 5676 5680 5686 5690 5694 5699 5704 5711 5715 5720 5724 5728 5732 5736 5740 5743 5749 5755 5760 5766 5769 5774 5779 5783 5785 5787 5788 5790 5791 5792 5792 5789 5790 5792 5792 5793 5792 5792 5792 5791
5656 5660 5665 5670 5676 5682 5686 5688 5693 5699 5704 5710 5715 5722 5726 5728 5730 5736 5741 5745 5748 5752 5756 5759 5765 5771 5774 5779 5780 5782 5783 5781 5781 5782 5783 5782 5784 5784 5784 5784 5784 5783 5782
5652 5658 5662 5668 5671 5676 5682 5686 5690 5696 5701 5705 5711 5717 5720 5724 5731 5734 5738 5740 5745 5747 5751 5752 5759 5761 5767 5769 5770 5772 5772 5772 5773 5776 5776 5776 5776 5776 5775 5775 5775 5775 5772
5649 5653 5659 5664 5667 5672 5678 5682 5686 5692 5698 5704 5707 5713 5716 5718 5723 5724 5728 5729 5742 5745 5743 5745 5751 5750 5753 5757 5759 5763 5762 5764 5765 5767 5768 5768 5767 5767 5767 5766 5765 5764 5762
5644 5648 5651 5655 5662 5667 5672 5678 5681 5685 5691 5697 5700 5704 5708 5713 5716 5719 5722 5728 5733 5736 5737 5739 5742 5745 5746 5748 5751 5752 5754 5755 5756 5759 5760 5759 5758 5758 5757 5755 5754 5753 5749
5639 5644 5648 5653 5658 5663 5667 5672 5676 5681 5688 5692 5694 5700 5703 5707 5712 5714 5717 5720 5724 5727 5729 5732 5733 5735 5739 5742 5743 5744 5746 5746 5748 5749 5749 5749 5749 5748 5747 5745 5743 5741 5738
5637 5641 5645 5648 5653 5658 5661 5664 5669 5675 5680 5684 5686 5690 5694 5699 5702 5706 5708 5712 5715 5719 5720 5722 5724 5726 5729 5731 5733 5735 5736 5738 5739 5738 5739 5738 5738 5739 5737 5735 5733 5731 5728
5632 5635 5639 5645 5649 5651 5654 5658 5661 5665 5670 5674 5678 5682 5686 5690 5693 5696 5699 5701 5705 5708 5711 5712 5715 5718 5720 5722 5723 5725 5725 5726 5727 5728 5727 5727 5727 5726 5725 5725 5721 5719 5718
5627 5629 5634 5637 5640 5643 5647 5650 5654 5658 5662 5665 5669 5674 5677 5681 5684 5687 5690 5693 5696 5699 5701 5703 5706 5708 5710 5712 5714 5714 5715 5716 5716 5716 5716 5716 5715 5714 5713 5711 5709 5709 5707
5623 5626 5628 5630 5634 5639 5642 5645 5648 5651 5653 5656 5658 5664 5667 5669 5673 5677 5679 5683 5686 5689 5692 5694 5697 5697 5699 5701 5703 5704 5704 5705 5705 5705 5704 5704 5703 5702 5701 5699 5698 5697 5695
5617 5620 5622 5625 5629 5631 5635 5638 5640 5641 5644 5647 5651 5654 5656 5659 5664 5666 5669 5674 5675 5678 5681 5683 5685 5687 5689 5691 5693 5694 5694 5695 5695 5694 5693 5692 5691 5690 5688 5687 5686 5684 5684
5612 5613 5615 5618 5621 5624 5627 5631 5632 5632 5635 5638 5641 5644 5647 5651 5655 5658 5660 5662 5664 5666 5669 5672 5674 5676 5678 5680 5680 5681 5682 5682 5681 5681 5681 5681 5679 5679 5677 5676 5674 5673 5673
5606 5608 5610 5612 5614 5616 5618 5619 5622 5625 5629 5633 5634 5637 5640 5642 5645 5647 5649 5651 5652 5655 5659 5661 5664 5665 5666 5666 5667 5668 5668 5668 5667 5667 5667 5668 5668 5666 5668 5667 5665 5663 5662
5597 5601 5605 5607 5607 5609 5610 5613 5613 5615 5618 5621 5625 5628 5629 5633 5634 5636 5637 5639 5640 5643 5647 5649 5651 5653 5652 5651 5653 5655 5656 5656 5656 5657 5655 5656 5656 5656 5655 5655 5654 5650 5648
5589 5592 5595 5598 5600 5603 5605 5606 5608 5610 5611 5613 5616 5619 5620 5622 5623 5625 5627 5628 5629 5632 5635 5637 5639 5641 5640 5640 5641 5643 5642 5643 5643 5642 5643 5644 5643 5644 5644 5643 5641 5640 5638
5581 5583 5587 5590 5593 5595 5597 5598 5599 5601 5602 5605 5607 5608 5610 5611 5612 5613 5614 5617 5618 5620 5622 5623 5626 5628 5627 5627 5627 5629 5630 5630 5630 5630 5630 5630 5631 5631 5631 5630 5629 5629 5626
5576 5577 5578 5580 5583 5585 5587 5589 5591 5592 5593 5594 5594 5596 5597 5598 5600 5601 5603 5604 5606 5608 5610 5611 5615 5616 5616 5613 5613 5615 5616 5617 5617 5618 5618 5617 5619 5618 5617 5619 5617 5615 5614
5571 5572 5572 5572 5573 5575 5577 5579 5580 5581 5582 5583 5584 5584 5584 5587 5589 5590 5591 5592 5594 5596 5597 5600 5601 5602 5602 5601 5602 5602 5603 5604 5605 5606 5607 5606 5608 5609 5607 5607 5606 5604 5603
5568 5567 5567 5568 5567 5567 5567 5567 5569 5571 5573 5573 5573 5572 5573 5575 5576 5576 5578 5581 5582 5584 5586 5588 5589 5589 5590 5590 5591 5590 5592 5593 5593 5595 5596 5596 5597 5597 5596 5595 5594 5593 5591
5566 5564 5563 5563 5562 5562 5561 5561 5560 5560 5560 5560 5561 5562 5562 5563 5563 5564 5565 5566 5569 5571 5574 5576 5576 5577 5577 5578 5579 5580 5581 5581 5582 5582 5585 5585 5586 5586 5585 5584 5583 5582 5581